| time (UTC) | temp C | wind direction | speed KPH | gust KPH | rain 1hr cm | rain 24hr cm | rain mn cm | humidity % | barometer mb |
| 20260506003056 | 9 | 138 | 11.3 | 27.4 | 0.00 | 0.41 | 0.41 | 98 | 1007.5 |
| 20260506001603 | 9 | 200 | 12.9 | 32.2 | 0.00 | 0.41 | 0.41 | 99 | 1007.3 |
| 20260506000056 | 9 | 219 | 11.3 | 24.1 | 0.00 | 0.41 | 0.41 | 99 | 1007.3 |
| 20260505234554 | 9 | 154 | 9.7 | 27.4 | 0.00 | 0.41 | 0.41 | 99 | 1007.1 |
| 20260505233107 | 9 | 254 | 11.3 | 29.0 | 0.03 | 0.41 | 0.41 | 98 | 1006.9 |
| 20260505231554 | 9 | 286 | 9.7 | 24.1 | 0.03 | 0.41 | 0.41 | 99 | 1006.7 |
| 20260505230059 | 9 | 259 | 17.7 | 40.2 | 0.08 | 0.41 | 0.41 | 98 | 1007.1 |
| 20260505224601 | 9 | 242 | 19.3 | 38.6 | 0.15 | 0.41 | 0.41 | 98 | 1007.0 |
| 20260505223101 | 10 | 281 | 17.7 | 48.3 | 0.18 | 0.38 | 0.38 | 97 | 1006.8 |
| 20260505221556 | 9 | 300 | 16.1 | 43.5 | 0.33 | 0.38 | 0.38 | 97 | 1006.3 |
| 20260505220056 | 9 | 194 | 16.1 | 41.8 | 0.33 | 0.33 | 0.33 | 97 | 1006.7 |
| 20260505214624 | 10 | 222 | 29.0 | 48.3 | 0.25 | 0.25 | 0.25 | 97 | 1007.2 |
| 20260505213102 | 10 | 287 | 19.3 | 45.1 | 0.20 | 0.20 | 0.20 | 94 | 1006.9 |
| 20260505211602 | 13 | 127 | 14.5 | 35.4 | 0.05 | 0.05 | 0.05 | 81 | 1005.8 |
| 20260505210056 | 16 | 210 | 14.5 | 32.2 | 0.00 | 0.00 | 0.00 | 57 | 1004.7 |
| 20260505204556 | 17 | 210 | 16.1 | 30.6 | 0.00 | 0.00 | 0.00 | 56 | 1004.4 |
| 20260505203059 | 17 | 115 | 20.9 | 37.0 | 0.00 | 0.00 | 0.00 | 58 | 1004.5 |
| 20260505201559 | 16 | 149 | 12.9 | 38.6 | 0.00 | 0.00 | 0.00 | 58 | 1004.3 |
| 20260505200058 | 16 | 152 | 19.3 | 37.0 | 0.00 | 0.00 | 0.00 | 59 | 1004.4 |
| 20260505194558 | 16 | 152 | 16.1 | 33.8 | 0.00 | 0.00 | 0.00 | 60 | 1004.2 |
| 20260505193055 | 17 | 210 | 20.9 | 41.8 | 0.00 | 0.00 | 0.00 | 59 | 1004.3 |
| 20260505191605 | 17 | 149 | 20.9 | 41.8 | 0.00 | 0.00 | 0.00 | 59 | 1004.5 |
| 20260505184601 | 17 | 210 | 9.7 | 35.4 | 0.00 | 0.00 | 0.00 | 58 | 1004.9 |
| 20260505183114 | 17 | 130 | 12.9 | 35.4 | 0.00 | 0.00 | 0.00 | 60 | 1005.0 |
| 20260505181553 | 16 | 148 | 24.1 | 56.3 | 0.00 | 0.00 | 0.00 | 62 | 1005.0 |
| 20260505180055 | 16 | 119 | 20.9 | 38.6 | 0.00 | 0.00 | 0.00 | 61 | 1004.8 |
| 20260505174554 | 16 | 123 | 20.9 | 46.7 | 0.00 | 0.03 | 0.00 | 62 | 1005.0 |
| 20260505173057 | 16 | 210 | 16.1 | 35.4 | 0.00 | 0.03 | 0.00 | 63 | 1005.3 |
| 20260505171600 | 16 | 210 | 12.9 | 40.2 | 0.00 | 0.03 | 0.00 | 62 | 1005.9 |
| 20260505170053 | 15 | 210 | 20.9 | 38.6 | 0.00 | 0.03 | 0.00 | 64 | 1005.5 |
| 20260505164554 | 15 | 146 | 22.5 | 41.8 | 0.00 | 0.03 | 0.00 | 66 | 1005.8 |
| 20260505163055 | 14 | 140 | 16.1 | 37.0 | 0.00 | 0.03 | 0.00 | 68 | 1006.4 |
| 20260505161621 | 14 | 153 | 17.7 | 33.8 | 0.00 | 0.03 | 0.00 | 67 | 1006.5 |
| 20260505153059 | 14 | 210 | 12.9 | 35.4 | 0.00 | 0.05 | 0.00 | 68 | 1006.9 |
| 20260505151618 | 12 | 148 | 12.9 | 30.6 | 0.00 | 0.05 | 0.00 | 72 | 1006.9 |
| 20260505124554 | 11 | 159 | 20.9 | 40.2 | 0.00 | 0.05 | 0.00 | 70 | 1006.2 |
| 20260505123053 | 11 | 132 | 17.7 | 38.6 | 0.00 | 0.05 | 0.00 | 70 | 1006.5 |
| 20260505121554 | 10 | 143 | 17.7 | 32.2 | 0.00 | 0.05 | 0.00 | 71 | 1006.6 |
| 20260505120111 | 10 | 210 | 14.5 | 30.6 | 0.00 | 0.05 | 0.00 | 71 | 1006.9 |
| 20260505114555 | 10 | 210 | 17.7 | 35.4 | 0.00 | 0.05 | 0.00 | 71 | 1006.8 |
| 20260505113054 | 10 | 159 | 17.7 | 33.8 | 0.00 | 0.05 | 0.00 | 72 | 1006.8 |
| 20260505111553 | 9 | 152 | 17.7 | 32.2 | 0.00 | 0.05 | 0.00 | 72 | 1006.9 |
| 20260505101555 | 9 | 210 | 17.7 | 33.8 | 0.00 | 0.05 | 0.00 | 71 | 1006.7 |
| 20260505100058 | 9 | 142 | 16.1 | 35.4 | 0.00 | 0.05 | 0.00 | 71 | 1006.7 |
| 20260505094558 | 9 | 162 | 14.5 | 33.8 | 0.00 | 0.05 | 0.00 | 70 | 1006.6 |
| 20260505093058 | 9 | 210 | 19.3 | 35.4 | 0.00 | 0.05 | 0.00 | 70 | 1006.7 |
| 20260505091553 | 9 | 176 | 19.3 | 35.4 | 0.00 | 0.05 | 0.00 | 69 | 1006.8 |
| 20260505090056 | 9 | 185 | 17.7 | 32.2 | 0.00 | 0.05 | 0.00 | 68 | 1006.7 |
| 20260505084557 | 9 | 179 | 17.7 | 37.0 | 0.00 | 0.05 | 0.00 | 68 | 1006.7 |
| 20260505083056 | 9 | 210 | 20.9 | 35.4 | 0.00 | 0.05 | 0.00 | 67 | 1006.8 |
| 20260505081600 | 9 | 163 | 19.3 | 33.8 | 0.00 | 0.05 | 0.00 | 67 | 1006.8 |
| 20260505080056 | 8 | 154 | 19.3 | 33.8 | 0.00 | 0.05 | 0.00 | 67 | 1006.9 |
| 20260505074600 | 8 | 197 | 19.3 | 33.8 | 0.00 | 0.05 | 0.00 | 67 | 1006.9 |
| 20260505073105 | 8 | 210 | 17.7 | 32.2 | 0.00 | 0.05 | 0.00 | 67 | 1006.9 |
| 20260505071600 | 8 | 210 | 16.1 | 30.6 | 0.00 | 0.05 | 0.00 | 68 | 1006.9 |
| 20260505070054 | 8 | 150 | 17.7 | 32.2 | 0.00 | 0.05 | 0.00 | 70 | 1006.9 |
| 20260505064555 | 8 | 150 | 16.1 | 30.6 | 0.00 | 0.05 | 0.00 | 71 | 1007.0 |
| 20260505063055 | 8 | 165 | 16.1 | 33.8 | 0.00 | 0.05 | 0.00 | 71 | 1007.1 |
| 20260505061558 | 8 | 150 | 16.1 | 25.7 | 0.00 | 0.05 | 0.00 | 70 | 1006.9 |
| 20260505060056 | 8 | 145 | 14.5 | 25.7 | 0.00 | 0.05 | 0.00 | 70 | 1007.0 |
| 20260505054626 | 8 | 175 | 14.5 | 25.7 | 0.00 | 0.05 | 0.00 | 69 | 1007.0 |
| 20260505053111 | 8 | 171 | 17.7 | 29.0 | 0.00 | 0.05 | 0.00 | 68 | 1007.1 |
| 20260505051553 | 8 | 186 | 16.1 | 30.6 | 0.00 | 0.05 | 0.00 | 68 | 1006.9 |
| 20260505041601 | 8 | 173 | 16.1 | 27.4 | 0.00 | 0.05 | 0.00 | 69 | 1006.9 |
| 20260505040057 | 8 | 160 | 12.9 | 22.5 | 0.00 | 0.05 | 0.00 | 69 | 1006.8 |
| 20260505034554 | 8 | 152 | 12.9 | 24.1 | 0.00 | 0.05 | 0.05 | 70 | 1006.9 |
| 20260505033055 | 8 | 144 | 12.9 | 24.1 | 0.00 | 0.05 | 0.05 | 70 | 1006.8 |
| 20260505031608 | 8 | 151 | 11.3 | 20.9 | 0.00 | 0.05 | 0.05 | 70 | 1007.0 |
| 20260505030053 | 8 | 167 | 9.7 | 19.3 | 0.00 | 0.05 | 0.05 | 73 | 1007.0 |
| 20260505024559 | 7 | 139 | 11.3 | 19.3 | 0.00 | 0.05 | 0.05 | 75 | 1007.0 |
| 20260505023116 | 7 | 134 | 11.3 | 19.3 | 0.00 | 0.05 | 0.05 | 75 | 1007.1 |
| 20260505021552 | 7 | 157 | 9.7 | 17.7 | 0.00 | 0.05 | 0.05 | 76 | 1007.3 |
| 20260505020057 | 8 | 182 | 11.3 | 20.9 | 0.00 | 0.05 | 0.05 | 74 | 1007.2 |
| 20260505014604 | 8 | 220 | 11.3 | 20.9 | 0.00 | 0.05 | 0.05 | 74 | 1007.3 |
| 20260505013107 | 7 | 165 | 11.3 | 22.5 | 0.00 | 0.05 | 0.05 | 76 | 1007.2 |
| 20260505011555 | 7 | 210 | 11.3 | 19.3 | 0.00 | 0.05 | 0.05 | 78 | 1006.8 |
| 20260505010053 | 7 | 146 | 11.3 | 20.9 | 0.00 | 0.05 | 0.05 | 79 | 1006.7 |
| 20260505004558 | 7 | 169 | 12.9 | 20.9 | 0.00 | 0.05 | 0.05 | 79 | 1006.7 |